Meteo Giornale » Osservazioni meteo Portogallo » Lisbona-Portela
ore: 20:00 - Osservazioni Meteo Lisbona-Portela
Lat. 38° 46' N Lon. 9° 8' W Alt. 114 metri s.l.m.
20 °C
Poco Nuvoloso
Temp. 24 Ore
18 °C
26 °C
Nord-Ovest
25.9 Km/h
Dew point 15 °C
Umidità 72 %
Visibilità 10 Km
Il sole sorge alle ore 07:05
Il sole tramonta alle ore 20:07
| Data e Ora | Cielo e Fenomeni | T °C | DP °C | Um. % | Pres. hPa | Vis. km | Vento km/h | |
|---|---|---|---|---|---|---|---|---|
| Oggi h: 20:00 | Poco Nuvoloso | 20 | 15 | 72 | 1019 | 10 | NO 25.9 | |
| Oggi h: 19:30 | Sereno | 22 | 15 | 64 | 1019 | 10 | NO 22.2 | |
| Oggi h: 19:00 | Sereno | 22 | 15 | 64 | 1019 | 10 | N/NO 24 | |
| Oggi h: 18:30 | Sereno | 23 | 15 | 60 | 1019 | 10 | N/NO 31.5 | |
| Oggi h: 18:00 | Sereno | 23 | 16 | 64 | 1019 | 10 | NO 24 | |
| Oggi h: 17:30 | Sereno | 24 | 16 | 60 | 1019 | 10 | NO 24 | |
| Oggi h: 17:00 | Sereno | 25 | 16 | 57 | 1019 | 10 | NO 22.2 | |
| Oggi h: 16:30 | Sereno | 26 | 15 | 50 | 1019 | 10 | N/NO 22.2 | |
| Oggi h: 16:00 | Sereno | 26 | 15 | 50 | 1019 | 10 | N/NO 22.2 | |
| Oggi h: 15:30 | Sereno | 26 | 15 | 50 | 1019 | 10 | NO 20.3 | |
| Oggi h: 15:00 | Poco Nuvoloso | 25 | 15 | 53 | 1019 | 10 | NO 22.2 | |
| Oggi h: 14:30 | Poco Nuvoloso | 25 | 15 | 53 | 1019 | 10 | N/NO 24 | |
| Oggi h: 14:00 | Poco Nuvoloso | 25 | 15 | 53 | 1019 | 10 | N/NO 24 | |
| Oggi h: 13:30 | Poco Nuvoloso | 26 | 15 | 50 | 1019 | 10 | N/NO 20.3 | |
| Oggi h: 13:00 | Poco Nuvoloso | 24 | 15 | 57 | 1020 | 10 | NO 22.2 | |
| Oggi h: 12:30 | Poco Nuvoloso | 24 | 16 | 60 | 1020 | 10 | NO 24 | |
| Oggi h: 12:00 | Poco Nuvoloso | 23 | 15 | 60 | 1020 | 10 | NO 25.9 | |
| Oggi h: 11:30 | Poco Nuvoloso | 22 | 15 | 64 | 1020 | 10 | N/NO 25.9 | |
| Oggi h: 11:00 | Poco Nuvoloso | 21 | 15 | 68 | 1020 | 10 | N/NO 25.9 | |
| Oggi h: 10:30 | Poco Nuvoloso | 21 | 15 | 68 | 1020 | 10 | N/NO 24 | |
| Oggi h: 10:00 | Poco Nuvoloso | 20 | 15 | 72 | 1020 | 10 | N/NO 29.6 | |
| Oggi h: 09:30 | Poco Nuvoloso | 20 | 15 | 72 | 1020 | 10 | N/NO 27.8 | |
| Oggi h: 09:00 | Poco Nuvoloso | 20 | 15 | 72 | 1020 | 10 | N/NO 24 | |
| Oggi h: 08:30 | Poco Nuvoloso | 19 | 15 | 77 | 1020 | 10 | N/NO 24 | |
| Oggi h: 08:00 | Poco Nuvoloso | 18 | 15 | 82 | 1019 | 10 | N/NO 20.3 | |
| Oggi h: 07:30 | Poco Nuvoloso | 18 | 15 | 82 | 1019 | 10 | N/NO 22.2 | |
| Oggi h: 07:00 | Poco Nuvoloso | 18 | 15 | 82 | 1019 | 10 | N/NO 22.2 | |
| Oggi h: 06:30 | Poco Nuvoloso | 18 | 15 | 82 | 1019 | 10 | N/NO 18.5 | |
| Oggi h: 06:00 | Poco Nuvoloso | 18 | 15 | 82 | 1019 | 10 | N/NO 22.2 | |
| Oggi h: 05:30 | Poco Nuvoloso | 18 | 15 | 82 | 1019 | 10 | N/NO 24 | |
| Oggi h: 05:00 | Poco Nuvoloso | 18 | 15 | 82 | 1019 | 10 | N/NO 22.2 | |
| Oggi h: 04:30 | Poco Nuvoloso | 18 | 15 | 82 | 1019 | 10 | N/NO 22.2 | |
| Oggi h: 04:00 | Poco Nuvoloso | 18 | 15 | 82 | 1019 | 10 | N/NO 20.3 | |
| Oggi h: 03:30 | Poco Nuvoloso | 18 | 15 | 82 | 1019 | 10 | N/NO 16.7 | |
| Oggi h: 03:00 | Poco Nuvoloso | 18 | 15 | 82 | 1020 | 10 | N/NO 16.7 | |
| Oggi h: 02:30 | Poco Nuvoloso | 18 | 15 | 82 | 1020 | 10 | N/NO 18.5 | |
| Oggi h: 02:00 | Poco Nuvoloso | 18 | 15 | 82 | 1020 | 10 | N/NO 18.5 | |
| Oggi h: 01:30 | Poco Nuvoloso | 18 | 14 | 77 | 1020 | 10 | N 18.5 | |
| Oggi h: 01:00 | Poco Nuvoloso | 18 | 15 | 82 | 1020 | 10 | N/NO 20.3 | |
| Oggi h: 00:30 | Poco Nuvoloso | 18 | 14 | 77 | 1020 | 10 | N/NO 27.8 | |
| Oggi h: 00:00 | Poco Nuvoloso | 18 | 14 | 77 | 1020 | 10 | N/NO 27.8 | |
| Ieri h: 23:30 | Poco Nuvoloso | 19 | 14 | 72 | 1020 | 10 | N/NO 24 | |
| Ieri h: 23:00 | Poco Nuvoloso | 19 | 14 | 72 | 1020 | 10 | N/NO 25.9 | |
| Ieri h: 22:30 | Poco Nuvoloso | 19 | 14 | 72 | 1021 | 10 | N/NO 22.2 | |
| Ieri h: 22:00 | Poco Nuvoloso | 19 | 15 | 77 | 1020 | 10 | N/NO 25.9 | |
| Ieri h: 21:30 | Poco Nuvoloso | 19 | 15 | 77 | 1020 | 10 | N/NO 24 | |
| Ieri h: 21:00 | Poco Nuvoloso | 19 | 15 | 77 | 1020 | 10 | N/NO 24 | |



